Augusta, Maine, United States (04330)
Lat: 44.31N, Lon: 69.78W
Wx Zone: MEZ021
Local Info
Past Weather Observations for Thursday, December 18, 2014

NOTE: This archive is for the closest National Weather Service station to Augusta. Information may differ from the station used for current weather conditions.

Click here for Long-term Archive

Time Weather Temperature Dewpoint Humidity Pressure Winds Precip Visibility
23:53
Clear
30°F / -1°C 21°F / -6°C 69% 29.77 in
(1008 mb)
NW 9.2 mph
(NW 15 kph)
- 10SM
22:53
Clear
30°F / -1°C 21°F / -6°C 69% 29.77 in
(1008 mb)
NW 11.5 mph
(NW 19 kph)
- 10SM
21:53
Mostly Cloudy
30°F / -1°C 21°F / -6°C 69% 29.77 in
(1008 mb)
WNW 9.2 mph
(WNW 15 kph)
- 10SM
20:53
Clear
30°F / -1°C 23°F / -5°C 75% 29.77 in
(1008 mb)
WNW 10.4 mph
(WNW 17 kph)
- 10SM
19:53
Partly Cloudy
32°F / 0°C 23°F / -5°C 69% 29.77 in
(1008 mb)
NW 9.2 mph
(NW 15 kph)
- 10SM
18:53
Overcast
34°F / 1°C 23°F / -5°C 65% 29.74 in
(1007 mb)
NW 13.8 mph
(NW 22 kph)
- 10SM
17:53
Overcast
34°F / 1°C 25°F / -4°C 70% 29.74 in
(1007 mb)
NW 10.4 mph
(NW 17 kph)
- 10SM
16:53
Overcast
34°F / 1°C 25°F / -4°C 70% 29.71 in
(1006 mb)
NW 8.1 mph
(NW 13 kph)
- 10SM
15:53
Overcast
36°F / 2°C 27°F / -3°C 70% 29.68 in
(1005 mb)
NW 6.9 mph
(NW 11 kph)
- 10SM
14:53
Partly Cloudy
36°F / 2°C 27°F / -3°C 70% 29.68 in
(1005 mb)
NW 9.2 mph
(NW 15 kph)
- 10SM
13:53
Overcast
36°F / 2°C 28°F / -2°C 75% 29.65 in
(1004 mb)
WNW 10.4 mph
(WNW 17 kph)
0.00 in
(0.00 mm)
10SM
12:53
Overcast
36°F / 2°C 30°F / -1°C 81% 29.65 in
(1004 mb)
WNW 8.1 mph
(WNW 13 kph)
0.00 in
(0.00 mm)
10SM
11:53
Overcast
Unknown Precip
36°F / 2°C 34°F / 1°C 93% 29.65 in
(1004 mb)
WNW 6.9 mph
(WNW 11 kph)
0.00 in
(0.00 mm)
10SM
11:15
Overcast
34°F / 1°C 34°F / 1°C 100% 29.65 in
(1004 mb)
WNW 6.9 mph
(WNW 11 kph)
0.00 in
(0.00 mm)
10SM
10:53
Overcast
Light Snow
34°F / 1°C 32°F / 0°C 93% 29.65 in
(1004 mb)
NW 8.1 mph
(NW 13 kph)
0.01 in
(0.25 mm)
6SM
09:53
Overcast
Light Snow
34°F / 1°C 32°F / 0°C 93% 29.68 in
(1005 mb)
WNW 8.1 mph
(WNW 13 kph)
0.01 in
(0.25 mm)
3SM
09:46
Overcast
Light Snow
34°F / 1°C 32°F / 0°C 93% 29.68 in
(1005 mb)
NW 9.2 mph
(NW 15 kph)
0.00 in
(0.00 mm)
4SM
08:53
Overcast
Light Snow
34°F / 1°C 32°F / 0°C 93% 29.65 in
(1004 mb)
NW 6.9 mph
(NW 11 kph)
0.02 in
(0.51 mm)
7SM
08:36
Overcast
Light Snow
34°F / 1°C 32°F / 0°C 93% 29.65 in
(1004 mb)
NW 6.9 mph
(NW 11 kph)
0.01 in
(0.25 mm)
5SM
08:19
Overcast
Light Snow
34°F / 1°C 32°F / 0°C 93% 29.65 in
(1004 mb)
NW 8.1 mph
(NW 13 kph)
0.01 in
(0.25 mm)
5SM
08:00
Overcast
Light Snow
34°F / 1°C 32°F / 0°C 93% 29.65 in
(1004 mb)
NW 8.1 mph
(NW 13 kph)
0.01 in
(0.25 mm)
4SM
07:53
Overcast
Light Snow
34°F / 1°C 32°F / 0°C 93% 29.65 in
(1004 mb)
NW 6.9 mph
(NW 11 kph)
0.00 in
(0.00 mm)
4SM
07:03
Overcast
Light Snow
32°F / 0°C 30°F / -1°C 93% 29.62 in
(1003 mb)
NW 6.9 mph
(NW 11 kph)
0.00 in
(0.00 mm)
6SM
06:53
Overcast
Light Snow
32°F / 0°C 30°F / -1°C 93% 29.62 in
(1003 mb)
NW 6.9 mph
(NW 11 kph)
0.03 in
(0.76 mm)
4SM
06:43
Overcast
Light Snow
32°F / 0°C 30°F / -1°C 93% 29.62 in
(1003 mb)
NW 5.8 mph
(NW 9 kph)
0.03 in
(0.76 mm)
2 1/2SM
06:24
Overcast
Light Snow
32°F / 0°C 30°F / -1°C 93% 29.62 in
(1003 mb)
NW 5.8 mph
(NW 9 kph)
0.02 in
(0.51 mm)
1 3/4SM
06:14
Overcast
Light Snow
32°F / 0°C 30°F / -1°C 93% 29.62 in
(1003 mb)
NW 5.8 mph
(NW 9 kph)
0.01 in
(0.25 mm)
2SM
05:53
Overcast
Light Snow
32°F / 0°C 30°F / -1°C 93% 29.62 in
(1003 mb)
NNW 4.6 mph
(NNW 7 kph)
0.04 in
(1.02 mm)
1 1/2SM
05:45
Overcast
Light Snow
32°F / 0°C 30°F / -1°C 93% 29.62 in
(1003 mb)
NNW 4.6 mph
(NNW 7 kph)
0.04 in
(1.02 mm)
1 1/2SM
05:30
Overcast
Light Snow
32°F / 0°C 30°F / -1°C 93% 29.62 in
(1003 mb)
NNW 3.5 mph
(NNW 6 kph)
0.03 in
(0.76 mm)
2 1/2SM
05:11
Overcast
Light Snow
32°F / 0°C 30°F / -1°C 93% 29.59 in
(1002 mb)
NNW 3.5 mph
(NNW 6 kph)
0.02 in
(0.51 mm)
1 3/4SM
05:04
Overcast
Light Snow
32°F / 0°C 30°F / -1°C 93% 29.59 in
(1002 mb)
N 3.5 mph
(N 6 kph)
0.01 in
(0.25 mm)
2 1/2SM
04:53
Overcast
Light Snow
32°F / 0°C 30°F / -1°C 93% 29.59 in
(1002 mb)
N 3.5 mph
(N 6 kph)
0.03 in
(0.76 mm)
4SM
04:38
Overcast
Light Snow
34°F / 1°C 32°F / 0°C 93% 29.59 in
(1002 mb)
Calm 0.02 in
(0.51 mm)
4SM
04:21
Overcast
Light Snow
34°F / 1°C 32°F / 0°C 93% 29.59 in
(1002 mb)
NW 3.5 mph
(NW 6 kph)
0.01 in
(0.25 mm)
4SM
03:53
Overcast
Light Snow
34°F / 1°C 32°F / 0°C 93% 29.62 in
(1003 mb)
NW 3.5 mph
(NW 6 kph)
0.01 in
(0.25 mm)
5SM
03:36
Overcast
Light Snow
34°F / 1°C 32°F / 0°C 93% 29.62 in
(1003 mb)
NW 4.6 mph
(NW 7 kph)
0.01 in
(0.25 mm)
7SM
02:53
Overcast
Fog And Mist
34°F / 1°C 34°F / 1°C 100% 29.62 in
(1003 mb)
NW 4.6 mph
(NW 7 kph)
0.00 in
(0.00 mm)
6SM
02:26
Overcast
Unknown Precip
34°F / 1°C 34°F / 1°C 100% 29.62 in
(1003 mb)
NW 6.9 mph
(NW 11 kph)
0.00 in
(0.00 mm)
7SM
02:19
Overcast
Unknown Precip
34°F / 1°C 34°F / 1°C 100% 29.62 in
(1003 mb)
NW 6.9 mph
(NW 11 kph)
0.00 in
(0.00 mm)
10SM
02:02
Overcast
34°F / 1°C 34°F / 1°C 100% 29.62 in
(1003 mb)
NW 5.8 mph
(NW 9 kph)
0.00 in
(0.00 mm)
10SM
01:53
Overcast
Unknown Precip
34°F / 1°C 32°F / 0°C 93% 29.62 in
(1003 mb)
NW 6.9 mph
(NW 11 kph)
0.00 in
(0.00 mm)
8SM
01:28
Overcast
Fog And Mist
34°F / 1°C 34°F / 1°C 100% 29.62 in
(1003 mb)
NW 5.8 mph
(NW 9 kph)
- 6SM
00:53
Overcast
34°F / 1°C 32°F / 0°C 93% 29.62 in
(1003 mb)
NNW 8.1 mph
(NNW 13 kph)
- 10SM
00:51
Overcast
34°F / 1°C 32°F / 0°C 93% 29.62 in
(1003 mb)
NW 8.1 mph
(NW 13 kph)
- 10SM
Time Weather Temperature Dewpoint Humidity Pressure Winds Precip Visibility


Weather for websites

WeatherForYou.com, LLC is not responsible for any damages or problems caused by this service. Current weather conditions are obtained from the closest station including government and personal stations which may have varying degrees of accuracy. Weather forecasts are derived from the NOAA NDFD. Like all things, this site belongs to Jesus Christ... He just trusts me to maintain it. If you have any questions or comments email webmaster@weatherforyou.com

Copyright © 2014, WeatherForYou.com LLC. All rights reserved.